Regional Weather Roundup
Issued by NWS Mobile, AL

Home | Current Version | Previous Version | Text Only | Print | Product List | Glossary On
Versions: 1 2 3 4 5 6 7 8 9 10 11 12 13 14 15 16 17 18 19 20 21 22 23 24 25 26 27
000
ASUS44 KMOB 180510
RWRMOB
REGIONAL WEATHER ROUNDUP
NATIONAL WEATHER SERVICE MOBILE AL
1200 AM CDT FRI APR 18 2014

NOTE: "FAIR" INDICATES FEW OR NO CLOUDS BELOW 12,000 FEET WITH NO
      SIGNIFICANT WEATHER AND/OR OBSTRUCTIONS TO VISIBILITY.

  * THESE STATIONS ARE PART OF THE UNIVERSITY OF SOUTH ALABAMA
    MESONET AND ARE NOT UNDER NWS OR FAA QUALITY CONTROL.

ALZ061>064-180600-
COASTAL ALABAMA

CITY           SKY/WX    TMP DP  RH WIND       PRES   REMARKS
MOBILE REG APT RAIN      60  60 100 E10       30.17F FOG
BROOKLEY FIELD LGT RAIN  62  59  90 E10       30.18F
USA CAMPUS*      N/A     61  59  94 E3        30.18F
DOG RIVER*     NOT AVBL


CITY           SKY/WX    TMP DP  RH WIND       PRES   REMARKS
MOUNT VERNON*    N/A     59  57  94 CALM      30.20S
SARALAND*      NOT AVBL
BAY MINETTE*   NOT AVBL
LOXLEY*        NOT AVBL
ROBERTSDALE*   NOT AVBL
FAIRHOPE*      NOT AVBL
ELBERTA*       NOT AVBL
FOLEY*         NOT AVBL
GRAND BAY*       N/A     61  59  94 E7        30.13F
DAUPHIN ISLND* NOT AVBL
BON SCOUR NWR* NOT AVBL
GULF SHORES    RAIN      60  59  97 NE9       30.14F

$$

ALZ051>060-180600-
INTERIOR SOUTHWEST AND SOUTH CENTRAL ALABAMA

CITY           SKY/WX    TMP DP  RH WIND       PRES   REMARKS
GREENVILLE     CLOUDY    61  51  70 E7        30.21S
EVERGREEN      CLOUDY    63  53  70 E5        30.22F
CASTLEBERRY*   NOT AVBL
ATMORE*          N/A     59  59 100 E7        30.21F
DIXIE*         NOT AVBL
ANDALUSIA/OPP  CLOUDY    65  54  67 S5        30.22R
ANDALUSIA*     NOT AVBL
FLORALA APT    HVY RAIN  60  58  92 CALM      30.23R FOG
FLORALA*         N/A     59  57  94 CALM      30.20R

$$

FLZ001>006-180600-
WESTERN FLORIDA PANHANDLE

CITY           SKY/WX    TMP DP  RH WIND       PRES   REMARKS
PENSACOLA      RAIN      62  58  86 NE6       30.17F FOG
NAS PENSACOLA  RAIN      61  60  97 NE10      30.16F
MILTON         RAIN      59  57  93 VRB7      30.18F FOG
WHTNG S FIELD  RAIN      62  59  90 NE12      30.18F FOG


CITY           SKY/WX    TMP DP  RH WIND       PRES   REMARKS
WALNUT HILL*   NOT AVBL
JAY*           NOT AVBL
DUKE FIELD     RAIN      61  61 100 VRB3      30.19S FOG
CRESTVIEW      RAIN      60  58  92 NE7       30.20F FOG
VALPARAISO     LGT RAIN  61  61 100 NE7       30.18F
DESTIN         HVY RAIN  63  60  90 NE9       30.17F FOG

$$

MSZ076-079-180600-
INTERIOR SOUTHEAST MISSISSIPPI

CITY           SKY/WX    TMP DP  RH WIND       PRES   REMARKS
LEAKESVILLE*     N/A     57  55  94 NE5       30.18S
AGRICOLA*      NOT AVBL

$$

MARINE OBSERVATIONS

STATION/POSITION TIME  TEMP    WIND        PRES    WAVE
                       AIR SEA DIR/SP/G            HT/PER
                 (UTC) (F)     (DEG/KT/KT) (MB)    (FT/S)
PASCAGOULA       0500   61      80/ 16/ 20 1019.2F
PETIT BOIS ISLND 0500   62      80/ 22/ 27 1019.8F
GRAND BAY        0400   62      70/ 11     1022.0S
KATRINA CUT      0400   62      70/ 14     1022.4S
CEDAR POINT      0400   61      60/  9     1021.3F
E DAUPHIN ISLAND 0500   62      40/ 11/ 12 1020.6F
MIDDLE BAY LIGHT 0400   62      70/ 11     1021.0S
USCG MOBILE BAY  0500   62 63   60/  7/  9 1020.7F
STATE DOCKS      0500   62 63              1021.5S
MEAHER PARK      0400   62      40/  2     1022.4S
WEEKS BAY        0400   56                   N/A
FORT MORGAN      0500   62      70/ 13/ 15 1020.6F
12 S ORANGE BCH  0500   63 66   50/ 21/ 25 1020.0F   4/ 7
PENSACOLA BAY    0500   62 66   40/  7/ 14 1021.8F
64 S DAUPHIN ISL 0404   65 71   30/ 21/ 25 1019.6
67 S FORT MORGAN 0400   64                 1018.6F

$$

SELECTED LOCATIONS ACROSS THE REGION

CITY           SKY/WX    TMP DP  RH WIND       PRES   REMARKS
NEW ORLEANS    CLOUDY    64  59  83 E13G21    30.12R
GULFPORT       CLOUDY    64  58  80 NE9       30.16R
PASCAGOULA AP  LGT RAIN  61  59  93 E12       30.13F FOG
PASCAGOULA*    NOT AVBL
HATTIESBURG    CLOUDY    60  54  80 E5        30.18F
LAUREL         CLOUDY    59  52  77 NE5       30.19S
MERIDIAN       CLOUDY    61  51  70 E6        30.21S
JACKSON        CLOUDY    60  52  74 E6        30.18S
MONTGOMERY     CLOUDY    62  48  60 NE10      30.23F
TROY           CLOUDY    61  51  70 E5        30.23F
KINSTON*       NOT AVBL
GENEVA*          N/A     63  55  77 SE6       30.22S
ASHFORD*       NOT AVBL
DOTHAN         CLOUDY    63  54  72 E12G17    30.24F
PANAMA CITY    HVY RAIN  63  59  88 N7        30.17F FOG

$$




USA.gov is the U.S. government's official web portal to all federal, state and local government web resources and services.